Flag for South Africa Weather past 2 weeks in Cape Town, South Africa

Now
95 °F

Passing clouds.


Feels Like: 92 °F
Forecast: 63 / 70 °F
Wind: 3 mph from Northeast

Location: Cape Town International Airport

Current Time: Mar 3, 2015 at 11:01:39 AM

Latest Report: Mar 3, 2015 at 10:00 AM


Visibility: N/A

Pressure: 29.89 "Hg

Humidity: 22%

Dew point: 50 °F

Location of Cape TownLocation

Historic Weather in Cape Town — Graph

°F

Cape Town temperature yesterday

Maximum temperature yesterday: 91 °F (at 2:00 PM)
Minimum temperature yesterday: 68 °F (at 6:00 AM)
Average temperature yesterday: 76 °F

Past Weeks' High & Low Weather Summary

 TemperatureHumidityPressure
High95 °F (Mar 3, 10:00 AM)94% (Feb 26, 5:00 AM)30.18 "Hg (Feb 26, 5:00 AM)
Low48 °F (Feb 22, 6:00 AM)22% (Mar 3, 10:00 AM)29.74 "Hg (Feb 17, 11:00 PM)
Average70 °F61%29.93 "Hg
* Reported Feb 16 10:00 AM — Mar 3 10:00 AM, Cape Town, Weather by CustomWeather, © 2015

Note: Actual official high and low records may vary slightly from our data, if they occured in-between our weather recording intervals... More about our weather records

Advertising

Cape Town weather history for previous 24 hours

 ConditionsComfort  
Time TempWeatherWind HumidityBarometerVisibility
10:00 AM
Tue, Mar 3
95 °FPassing clouds.3 mph22%29.89 "HgN/A
9:00 AM86 °FSunny.2 mph35%29.89 "Hg10 mi
8:00 AM70 °FSunny.2 mph64%29.89 "Hg10 mi
7:00 AM63 °FSunny.3 mph73%29.86 "Hg10 mi
6:00 AM59 °FSunny.3 mph77%29.86 "Hg10 mi
5:00 AM61 °FClear.2 mph77%29.86 "Hg10 mi
4:00 AM61 °FClear.2 mph77%29.86 "Hg10 mi
3:00 AM64 °FClear.3 mph78%29.86 "Hg10 mi
2:00 AM63 °FClear.1 mph73%29.89 "Hg10 mi
1:00 AM64 °FClear.5 mph73%29.89 "Hg10 mi
12:00 AM66 °FClear.3 mph68%29.89 "Hg10 mi
11:00 PM
Mon, Mar 2
70 °FPassing clouds.8 mph60%29.92 "HgN/A
10:00 PM72 °FClear.12 mph57%29.92 "Hg10 mi
9:00 PM72 °FClear.9 mph61%29.92 "Hg10 mi
8:00 PM70 °FPassing clouds.9 mph64%29.92 "HgN/A
7:00 PM73 °FClear.9 mph57%29.89 "Hg10 mi
6:00 PM75 °FSunny.12 mph54%29.89 "Hg10 mi
5:00 PM77 °FSunny.12 mph54%29.92 "Hg10 mi
4:00 PM84 °FSunny.13 mph40%29.92 "Hg10 mi
3:00 PM88 °FPassing clouds.14 mph33%29.92 "HgN/A
2:00 PM91 °FSunny.15 mph28%29.95 "Hg10 mi
1:00 PM90 °FPassing clouds.12 mph27%29.95 "HgN/A
12:00 PM88 °FPassing clouds.8 mph31%29.98 "HgN/A
11:00 AM84 °FPassing clouds.8 mph33%29.98 "HgN/A
Weather by CustomWeather, © 2015

See weather overviewHow to use our weather pages